Regional Weather Roundup
Issued by NWS

Home | Current Version | Previous Version | Text Only | Print | Product List | Glossary On
Versions: 1 2 3 4 5 6 7 8 9 10 11 12 13 14 15 16 17 18 19 20 21 22 23 24 25 26 27 28
000
ASUS46 KPQR 250810
RWROR

OREGON REGIONAL WEATHER ROUNDUP
NATIONAL WEATHER SERVICE PORTLAND OR
100 AM PDT SAT MAR 25 2017

NOTE: "FAIR" INDICATES FEW OR NO CLOUDS BELOW 12,000 FEET WITH
NO SIGNIFICANT WEATHER AND/OR OBSTRUCTIONS TO VISIBILITY.

ORZ001>013-250900-
NORTHWEST OREGON


CITY           SKY/WX    TMP DP  RH WIND       PRES   REMARKS
ASTORIA        CLOUDY    46  41  82 SW7       30.06R
NEWPORT        CLOUDY    48  41  76 SW8       30.14S
PORTLAND       CLOUDY    47  41  80 SW8       30.11R
VANCOUVER WA   CLOUDY    47  44  90 SW5       30.10R
SCAPPOOSE      MOCLDY    40  40 100 W3        30.09R
HILLSBORO      CLOUDY    45  43  93 S5        30.10R
AURORA         PTCLDY    45  43  93 S5        30.12R
MCMINNVILLE    PTCLDY    43  41  93 S6        30.12R
SALEM          PTCLDY    43  40  89 S8        30.11R
CORVALLIS      CLOUDY    45  41  87 S3        30.13S
EUGENE         LGT RAIN  46  43  89 SW8       30.14S
$$

ORZ021-028-250900-
SOUTHWEST OREGON


CITY           SKY/WX    TMP DP  RH WIND       PRES   REMARKS
NORTH BEND     CLOUDY    46  46 100 S5        30.17S
BROOKINGS      LGT RAIN  48  47  96 CALM      30.18S
ROSEBURG       LGT RAIN  47  46  97 CALM      30.15R
SEXTON SUMMIT  FOG       35  35 100 S9        30.08S VSB 1/4 WCI  28
MEDFORD        PTCLDY    42  40  92 CALM      30.14S
$$

ORZ014>016-041-250900-
COLUMBIA GORGE


CITY           SKY/WX    TMP DP  RH WIND       PRES   REMARKS
TROUTDALE      CLOUDY    47  43  86 S3        30.11R
THE DALLES     CLOUDY    47  42  83 N9        30.07S
$$

ORZ029>031-041-044-049-050-061>064-502-503-505>511-250900-
EASTERN OREGON


CITY           SKY/WX    TMP DP  RH WIND       PRES   REMARKS
REDMOND        PTCLDY    40  30  67 S12       30.05S WCI  33
BEND           PTCLDY    39  30  70 S14       30.05F WCI  31
PRINEVILLE     PTCLDY    39  32  75 S10       30.05S WCI  32
KLAMATH FALLS  CLEAR     32  29  88 CALM      30.09F
LAKEVIEW       PTCLDY    34  28  80 E5        30.12S WCI  30
HERMISTON      PTCLDY    42  39  89 SW7       30.05R
PENDLETON      PTCLDY    42  36  79 S8        30.05R
JOHN DAY       PTCLDY    36  34  91 CALM      30.08R
MEACHAM        CLOUDY    31  27  85 CALM      30.04R
LA GRANDE      CLOUDY    37  32  81 SE6       30.05S WCI  33
BAKER CITY     MOCLDY    32  31  96 E5        30.06S WCI  27
BURNS          PTCLDY    35  30  82 SW5       30.09S WCI  31
ROME             N/A     40  30  67 S13       30.08R WCI  32
ONTARIO        CLOUDY    41  39  93 SW6       30.09S
$$




USA.gov is the U.S. government's official web portal to all federal, state and local government web resources and services.